Regional Weather Roundup
Issued by NWS

Home | Current Version | Previous Version | Graphics & Text | Print | Product List | Glossary On
Versions: 1 2 3 4 5 6 7 8 9 10 11 12 13 14 15 16 17 18 19 20 21 22 23 24 25 26 27 28 29 30 31 32 33 34 35 36 37 38 39 40 41 42 43 44 45 46 47 48 49 50
000
ASUS43 KFSD 211110
RWRSD

WEATHER ROUNDUP FOR SOUTH DAKOTA
NATIONAL WEATHER SERVICE SIOUX FALLS SD
600 AM CDT TUE APR 21 2015

NOTE: "FAIR" INDICATES FEW OR NO CLOUDS BELOW 12,000 FEET WITH NO
SIGNIFICANT WEATHER AND/OR OBSTRUCTIONS TO VISIBILITY.


SDZ001>005-009-010-012>017-211200-
NORTHWEST AND NORTH CENTRAL SOUTH DAKOTA

CITY           SKY/WX    TMP DP  RH WIND       PRES   REMARKS
BUFFALO          N/A     35  21  56 W5        29.71F
FAITH            N/A     34  22  61 N15G23    29.79R WCI  24
MOBRIDGE       CLOUDY    35  23  61 N12       29.80R WCI  27
$$

SDZ012>016-024>037-041>051-057-063-072>074-211200-
SOUTHWEST AND SOUTH CENTRAL SOUTH DAKOTA

CITY           SKY/WX    TMP DP  RH WIND       PRES   REMARKS
RAPID CTY ARPT CLEAR     31  21  66 S3        29.78F
PIERRE         MOCLDY    31  19  61 W12       29.80R WCI  22
CUSTER         CLEAR     29  17  61 W9        29.83F WCI  20
ELLSWORTH AFB  CLEAR     32  21  64 SW8       29.76F WCI  25
PHILIP         MOCLDY    30  32 100 NW8       29.80S WCI  22
PINE RIDGE     CLEAR     27  20  75 W5        29.84F WCI  22
SPEARFISH      FAIR      45  18  33 MISG      29.78S
WINNER         FAIR      37  20  50 W12       29.79F
$$

SDZ004>011-016>023-039-040-211200-
NORTHEAST SOUTH DAKOTA

CITY           SKY/WX    TMP DP  RH WIND       PRES   REMARKS
ABERDEEN       CLOUDY    33  24  69 NW14      29.79R WCI  23
WATERTOWN      PTCLDY    32  24  72 NW18      29.71R WCI  20
BROOKINGS      CLOUDY    30  25  80 NW14      29.73R WCI  20
SISSETON         N/A     34  25  69 NW23G30   29.68S WCI  22
$$

SDZ017-020-022-023-036>040-048>070-211200-
SOUTHEAST SOUTH DAKOTA

CITY           SKY/WX    TMP DP  RH WIND       PRES   REMARKS
SIOUX FALLS    PTCLDY    31  16  54 W12       29.73R WCI  22
HURON          MOCLDY    32  19  58 NW8       29.78R WCI  25
CHAMBERLAIN    CLEAR     27  18  68 NW8       29.79S WCI  19
MITCHELL       PTCLDY    31  15  52 W10       29.79R WCI  22
YANKTON        CLEAR     37  18  44 W14G21    29.76F
$$

ABBREVIATIONS USED IN REMARKS
   TC - TEMPERATURE IN CELSIUS
  WCI - WIND CHILL INDEX
   HX - HEAT INDEX
  VSB - VISIBILITY



USA.gov is the U.S. government's official web portal to all federal, state and local government web resources and services.